This demonstration page uses our WeatherBlox Daily Observations layout. Learn more.

41.55636, -103.73856

Hourly Observations for February 17, 2020

Temp ( °F °C ) Dew Point ( °F °C ) Humidity (%) Winds ( mph kmh ) Pressure ( in mb ) Visibility ( mi km ) Precip ( " mm )
12:53 am 00:53 Partly Cloudy 33 0.6 29 -1.7 85 85 W 7 11 29.75 1008 10 16.0934 0 0
1:53 am 01:53 Clear 37 2.8 25 -3.9 62 62 W 20 31 29.74 1007 10 16.0934 0 0
2:53 am 02:53 Clear 34 1.1 26 -3.3 73 73 WNW 14 22 29.77 1008 10 16.0934 0 0
3:53 am 03:53 Clear 34 1.1 26 -3.3 73 73 WNW 22 35 29.8 1009 10 16.0934 0 0
4:53 am 04:53 Clear 31 -0.6 27 -2.8 85 85 WNW 9 15 29.87 1012 10 16.0934 0 0
5:53 am 05:53 Mostly Clear 30 -1.1 27 -2.8 88 88 WNW 9 15 29.9 1012 10 16.0934 0 0
6:53 am 06:53 Partly Cloudy 30 -1.1 27 -2.8 88 88 WNW 12 19 29.93 1014 8 12.87472 0 0
7:14 am 07:14 Mostly Cloudy with Scattered Snow Showers 30 -1 27 -3 86 86 WNW 10 17 30.03 1017 5 8.0467 0 0
7:26 am 07:26 Cloudy with Light Snow 30 -1 28 -2 93 93 WNW 14 22 30.04 1017 2.5 4.02335 0 0
7:33 am 07:33 Cloudy with Light Snow 31 -0.6 29 -1.7 92 92 WNW 16 26 30.03 1017 0.75 1.207005 0.001 0.001
7:40 am 07:40 Cloudy with Light Snow 31 -0.6 29 -1.7 92 92 WNW 13 20 30.03 1017 2 3.21868 0.001 0.001
7:48 am 07:48 Cloudy with Light Snow 30 -1 28 -2 93 93 WNW 12 19 30.05 1018 5 8.0467 0 0
7:53 am 07:53 Mostly Cloudy with Scattered Snow Showers 32 0 30 -1.1 92 92 WNW 13 20 29.96 1015 6 9.65604 0.001 0.001
8:04 am 08:04 Cloudy 33 0.6 30 -1.1 89 89 W 12 19 30.03 1017 10 16.0934 0.001 0.001
8:34 am 08:34 Mostly Cloudy 33 0.6 29 -1.7 85 85 W 13 20 30.04 1017 10 16.0934 0.001 0.001
8:49 am 08:49 Partly Cloudy 34 1 28 -2 81 81 WNW 15 24 30.03 1017 10 16.0934 0.001 0.001
8:53 am 08:53 Partly Cloudy 34 1.1 29 -1.7 82 82 WNW 14 22 29.97 1015 10 16.0934 0.001 0.001
9:29 am 09:29 Mostly Cloudy 36 2.2 27 -2.8 70 70 NW 16 26 30.03 1017 10 16.0934 0 0
9:53 am 09:53 Mostly Cloudy 38 3.3 27 -2.8 65 65 NW 20 31 29.98 1015 10 16.0934 0 0
10:53 am 10:53 Mostly Cloudy 38 3.3 25 -3.9 60 60 NNW 21 33 30 1016 10 16.0934 0 0
11:53 am 11:53 Mostly Cloudy 38 3.3 23 -5 55 55 NW 15 24 30.01 1016 10 16.0934 0 0
12:53 pm 12:53 Cloudy 39 3.9 23 -5 53 53 NNW 18 30 30.01 1016 10 16.0934 0 0
1:53 pm 13:53 Mostly Sunny 40 4.4 21 -6.1 47 47 N 20 31 29.99 1016 10 16.0934 0 0
2:53 pm 14:53 Cloudy 38 3.3 20 -6.7 48 48 N 13 20 30.01 1016 10 16.0934 0 0
3:53 pm 15:53 Cloudy with Light Snow 33 0.6 24 -4.4 70 70 WNW 6 9 30.06 1018 2.5 4.02335 0.001 0.001
4:02 pm 16:02 Cloudy 34 1.1 24 -4.4 67 67 WNW 3 6 30.1 1019 9 14.48406 0.001 0.001
4:16 pm 16:16 Cloudy with Light Snow 33 0.6 25 -3.9 72 72 NW 14 22 30.12 1020 1.5 2.41401 0.001 0.001
4:20 pm 16:20 Cloudy with Snow 31 -0.6 25 -3.9 79 79 VRB 3 6 30.15 1021 0.5 0.80467 0.01 0.254
4:35 pm 16:35 Cloudy with Heavy Snow 30 -1.1 28 -2.2 92 92 NW 8 13 30.16 1021 0.25 0.402335 0.01 0.254
4:42 pm 16:42 Mostly Cloudy with Snow 30 -1.1 28 -2.2 92 92 NW 3 6 30.16 1021 0.5 0.80467 0.02 0.508
4:51 pm 16:51 Cloudy with Light Snow 30 -1 28 -2 93 93 NW 5 7 30.17 1022 0.75 1.207005 0.03 0.762
4:53 pm 16:53 Cloudy with Light Snow 30 -1.1 28 -2.2 92 92 NW 5 7 30.11 1020 1 1.60934 0.03 0.762
5:07 pm 17:07 Cloudy with Light Snow 30 -1.1 27 -2.8 88 88 WSW 5 7 30.17 1022 3 4.82802 0.001 0.001
5:29 pm 17:29 Cloudy with Light Snow 30 -1.1 27 -2.8 88 88 W 13 20 30.19 1022 1.5 2.41401 0.001 0.001
5:37 pm 17:37 Cloudy with Light Snow 30 -1.1 27 -2.8 88 88 W 6 9 30.19 1022 1 1.60934 0.001 0.001
5:42 pm 17:42 Cloudy with Light Snow 30 -1 27 -3 86 86 NW 7 11 30.19 1022 3 4.82802 0 0
5:53 pm 17:53 Cloudy with Light Snow 30 -1.1 26 -3.3 85 85 W 6 9 30.14 1021 9 14.48406 0.001 0.001
6:02 pm 18:02 Cloudy 30 -1.1 26 -3.3 85 85 W 5 7 30.2 1023 10 16.0934 0.001 0.001
6:53 pm 18:53 Mostly Cloudy 28 -2.2 22 -5.6 78 78 N 7 11 30.17 1022 10 16.0934 0.001 0.001
7:53 pm 19:53 Mostly Cloudy 28 -2.2 23 -5 81 81 N 3 6 30.16 1021 10 16.0934 0 0
8:53 pm 20:53 Cloudy 26 -3.3 23 -5 88 88 Calm 30.2 1023 10 16.0934 0 0
9:14 pm 21:14 Cloudy 26 -3.3 24 -4.4 92 92 Calm 30.32 1027 10 16.0934 0 0
9:41 pm 21:41 Cloudy 27 -2.8 25 -3.9 92 92 ESE 3 6 30.31 1026 9 14.48406 0 0
9:53 pm 21:53 Cloudy with Light Snow 27 -2.8 25 -3.9 92 92 S 5 7 30.22 1023 5 8.0467 0.001 0.001
10:05 pm 22:05 Cloudy with Light Snow 28 -2.2 26 -3.3 92 92 Calm 30.31 1026 2 3.21868 0.001 0.001
10:17 pm 22:17 Cloudy with Light Snow 28 -2.2 26 -3.3 92 92 Calm 30.31 1026 2 3.21868 0.001 0.001
10:37 pm 22:37 Cloudy with Light Snow 27 -2.8 26 -3.3 96 96 Calm 30.32 1027 1.25 2.011675 0.01 0.254
10:44 pm 22:44 Cloudy with Light Snow 27 -3 25 -4 93 93 Calm 30.32 1027 2 3.21868 0 0
10:53 pm 22:53 Cloudy with Light Snow 27 -2.8 25 -3.9 92 92 Calm 30.23 1024 3 4.82802 0.01 0.254
11:53 pm 23:53 Cloudy 25 -3.9 24 -4.4 96 96 NW 5 7 30.24 1024 10 16.0934 0.001 0.001

Powered by AerisWeather